Date,TemperatureHighF,TemperatureAvgF,TemperatureLowF,DewpointHighF,DewpointAvgF,DewpointLowF,HumidityHigh,HumidityAvg,HumidityLow,PressureMaxIn,PressureMinIn,WindSpeedMaxMPH,WindSpeedAvgMPH,GustSpeedMaxMPH,PrecipitationSumIn
2013-3-1,74.9,56.0,40.5,26.8,19.5,12.8,35,25,15,30.29,30.18,8,3,10,0.00
2013-3-2,82.1,62.6,47.3,33.6,25.9,20.3,40,27,13,30.26,30.11,10,3,10,0.00
2013-3-3,78.5,65.2,52.9,32.6,23.9,16.4,32,22,12,30.12,29.95,17,4,17,0.00
2013-3-4,70.6,64.1,55.6,32.0,24.7,16.9,36,23,18,30.07,29.89,15,5,15,0.00
2013-3-5,82.1,63.0,48.6,36.3,30.3,26.0,47,31,18,30.09,29.98,12,4,12,0.00
2013-3-6,80.3,68.2,54.9,35.5,30.3,26.6,39,26,17,30.02,29.92,12,4,12,0.00
2013-3-7,79.6,65.2,54.7,35.2,27.5,20.4,36,26,12,29.97,29.90,17,5,17,0.00
2013-3-8,63.7,55.3,43.7,50.1,38.4,29.7,75,55,32,29.95,29.79,22,6,22,0.17
2013-3-9,52.6,46.1,40.3,39.0,36.1,31.8,83,68,57,30.03,29.93,14,4,14,0.12
2013-3-10,64.3,52.6,44.8,39.9,35.0,28.4,75,54,28,30.11,30.02,20,4,20,0.00
2013-3-11,70.9,55.9,43.4,36.4,32.7,29.9,63,44,23,30.14,30.01,15,4,15,0.00
2013-3-12,79.7,63.4,46.4,38.8,33.7,29.7,54,36,18,30.07,30.00,11,4,11,0.00
2013-3-13,70.9,67.9,64.1,28.4,27.7,26.4,26,22,20,30.11,30.08,7,3,7,0.00
2013-3-14,90.0,72.7,56.3,33.1,27.6,23.9,32,21,8,30.14,30.03,17,4,17,0.00
2013-3-15,90.9,77.9,57.2,32.5,25.6,21.7,27,15,6,30.06,29.96,22,6,22,0.00
2013-3-16,86.9,72.5,58.3,31.2,23.5,15.9,25,16,6,29.98,29.82,22,6,22,0.00
2013-3-17,81.5,69.2,58.9,26.7,21.6,17.5,21,17,10,29.97,29.85,20,7,20,0.00
2013-3-18,80.8,68.0,56.2,36.1,25.9,20.3,35,22,12,30.02,29.93,14,5,16,0.00
2013-3-19,78.1,67.2,56.5,37.3,28.8,23.0,34,25,16,30.07,29.95,16,5,16,0.00
2013-3-20,82.3,68.9,55.4,38.1,30.1,26.6,37,25,15,30.06,29.90,14,3,14,0.00
2013-3-21,76.9,68.4,59.0,39.8,31.8,27.9,34,26,19,29.91,29.79,12,3,12,0.00
2013-3-22,75.8,64.5,59.8,36.0,30.2,27.0,37,28,18,29.85,29.74,14,4,14,0.00
2013-3-23,73.3,63.2,52.6,36.9,22.0,4.5,43,24,7,29.99,29.83,20,6,20,0.00
2013-3-24,74.5,61.8,48.1,17.7,10.2,3.8,22,13,7,30.00,29.89,16,5,16,0.00
2013-3-25,79.9,64.8,49.9,23.1,14.8,6.8,23,15,10,29.99,29.91,16,4,16,0.00
2013-3-26,86.6,70.3,54.9,27.3,19.4,12.8,24,15,6,29.99,29.88,15,5,15,0.00
2013-3-27,87.8,71.2,58.7,28.2,19.9,11.1,22,15,10,30.03,29.91,17,5,17,0.00
2013-3-28,82.6,65.8,59.0,21.9,17.0,11.9,23,16,10,30.09,30.00,11,5,11,0.00
2013-3-29,85.9,71.4,59.4,36.1,21.7,12.7,25,16,7,30.11,30.04,14,4,14,0.00
2013-3-30,66.4,63.1,60.7,24.7,17.2,15.3,21,17,15,30.10,30.05,8,3,8,0.00
2013-3-31,85.0,71.9,56.0,33.7,26.5,19.8,33,20,12,30.07,29.98,9,4,9,0.00